| time (UTC) | temp F | wind direction | speed MPH | gust MPH | rain 1hr in | rain 24hr in | rain mn in | humidity % | barometer mb |
| 20260506073031 | 77 | 112 | 8.0 | 8.0 | 0.00 | 0.00 | 0.00 | 82 | 1006.8 |
| 20260506072531 | 77 | 127 | 1.0 | 5.0 | 0.00 | 0.00 | 0.00 | 82 | 1007.1 |
| 20260506072031 | 77 | 227 | 4.0 | 10.0 | 0.00 | 0.00 | 0.00 | 82 | 1007.1 |
| 20260506071531 | 77 | 272 | 6.0 | 10.0 | 0.00 | 0.00 | 0.00 | 82 | 1007.1 |
| 20260506071031 | 77 | 79 | 1.0 | 10.0 | 0.00 | 0.00 | 0.00 | 82 | 1007.2 |
| 20260506070531 | 77 | 115 | 10.0 | 10.0 | 0.00 | 0.00 | 0.00 | 82 | 1007.2 |
| 20260506062031 | 77 | 140 | 2.0 | 6.0 | 0.00 | 0.00 | 0.00 | 82 | 1007.1 |
| 20260506061531 | 77 | 229 | 4.0 | 6.0 | 0.00 | 0.00 | 0.00 | 82 | 1007.1 |
| 20260506061031 | 77 | 165 | 2.0 | 5.0 | 0.00 | 0.00 | 0.00 | 82 | 1007.3 |
| 20260506050530 | 77 | 101 | 2.0 | 6.0 | 0.00 | 0.00 | 0.00 | 81 | 1007.3 |
| 20260506045030 | 78 | 254 | 1.0 | 3.0 | 0.00 | 0.00 | 0.00 | 81 | 1007.2 |
| 20260506044530 | 78 | 146 | 0.0 | 5.0 | 0.00 | 0.00 | 0.00 | 81 | 1007.2 |
| 20260506044030 | 78 | 126 | 3.0 | 5.0 | 0.00 | 0.00 | 0.00 | 81 | 1007.1 |
| 20260506043530 | 78 | 220 | 3.0 | 5.0 | 0.00 | 0.00 | 0.00 | 81 | 1007.2 |
| 20260506043030 | 78 | 159 | 2.0 | 8.0 | 0.00 | 0.00 | 0.00 | 81 | 1007.1 |
| 20260506042030 | 78 | 103 | 6.0 | 7.0 | 0.00 | 0.00 | 0.00 | 81 | 1007.0 |
| 20260506041530 | 78 | 192 | 1.0 | 7.0 | 0.00 | 0.00 | 0.00 | 81 | 1007.1 |
| 20260506041030 | 78 | 138 | 1.0 | 2.0 | 0.00 | 0.00 | 0.00 | 80 | 1007.1 |
| 20260506040030 | 78 | 146 | 1.0 | 2.0 | 0.00 | 0.00 | 0.00 | 80 | 1006.8 |
| 20260506035530 | 78 | 167 | 1.0 | 2.0 | 0.00 | 0.00 | 0.00 | 80 | 1006.7 |
| 20260506035029 | 78 | 110 | 0.0 | 3.0 | 0.00 | 0.00 | 0.00 | 80 | 1006.7 |
| 20260506034530 | 78 | 132 | 2.0 | 7.0 | 0.00 | 0.00 | 0.00 | 80 | 1006.7 |
| 20260506034029 | 78 | 135 | 4.0 | 7.0 | 0.00 | 0.00 | 0.00 | 80 | 1006.6 |
| 20260506033029 | 78 | 147 | 2.0 | 4.0 | 0.00 | 0.00 | 0.00 | 80 | 1006.5 |
| 20260506032529 | 79 | 113 | 3.0 | 4.0 | 0.00 | 0.00 | 0.00 | 80 | 1006.4 |
| 20260506032029 | 79 | 149 | 1.0 | 4.0 | 0.00 | 0.00 | 0.00 | 80 | 1006.4 |
| 20260506031029 | 79 | 209 | 1.0 | 4.0 | 0.00 | 0.00 | 0.00 | 79 | 1006.2 |
| 20260506030029 | 79 | 153 | 2.0 | 4.0 | 0.00 | 0.00 | 0.00 | 79 | 1006.0 |
| 20260506025529 | 79 | 93 | 1.0 | 4.0 | 0.00 | 0.00 | 0.00 | 79 | 1005.9 |
| 20260506025029 | 79 | 196 | 1.0 | 2.0 | 0.00 | 0.00 | 0.00 | 79 | 1005.8 |
| 20260506024029 | 80 | 107 | 2.0 | 3.0 | 0.00 | 0.00 | 0.00 | 78 | 1005.8 |
| 20260506023529 | 80 | 282 | 0.0 | 5.0 | 0.00 | 0.00 | 0.00 | 78 | 1005.6 |
| 20260506023029 | 80 | 177 | 1.0 | 7.0 | 0.00 | 0.00 | 0.00 | 78 | 1005.5 |
| 20260506022029 | 80 | 105 | 0.0 | 4.0 | 0.00 | 0.00 | 0.00 | 78 | 1005.2 |
| 20260506021529 | 81 | 165 | 4.0 | 4.0 | 0.00 | 0.00 | 0.00 | 77 | 1005.2 |
| 20260506021029 | 81 | 146 | 0.0 | 8.0 | 0.00 | 0.00 | 0.00 | 77 | 1005.2 |
| 20260506020029 | 81 | 139 | 2.0 | 2.0 | 0.00 | 0.00 | 0.00 | 77 | 1005.2 |
| 20260506015529 | 81 | 169 | 0.0 | 4.0 | 0.00 | 0.00 | 0.00 | 76 | 1005.0 |
| 20260506015029 | 81 | 217 | 2.0 | 4.0 | 0.00 | 0.00 | 0.00 | 76 | 1004.9 |
| 20260506014529 | 81 | 159 | 1.0 | 4.0 | 0.00 | 0.00 | 0.00 | 76 | 1004.8 |
| 20260506014029 | 81 | 123 | 1.0 | 4.0 | 0.00 | 0.00 | 0.00 | 76 | 1004.9 |
| 20260506013528 | 81 | 161 | 4.0 | 4.0 | 0.00 | 0.00 | 0.00 | 76 | 1004.8 |
| 20260506013028 | 82 | 150 | 3.0 | 4.0 | 0.00 | 0.00 | 0.00 | 75 | 1005.0 |
| 20260506012028 | 82 | 159 | 0.0 | 2.0 | 0.00 | 0.00 | 0.00 | 75 | 1005.1 |
| 20260506011528 | 82 | 123 | 2.0 | 2.0 | 0.00 | 0.00 | 0.00 | 75 | 1005.1 |
| 20260506011029 | 82 | 157 | 0.0 | 2.0 | 0.00 | 0.00 | 0.00 | 75 | 1005.1 |
| 20260506010528 | 83 | 132 | 0.0 | 2.0 | 0.00 | 0.00 | 0.00 | 74 | 1005.0 |
| 20260506010028 | 83 | 188 | 1.0 | 2.0 | 0.00 | 0.00 | 0.00 | 74 | 1005.0 |
| 20260506005028 | 83 | 121 | 0.0 | 3.0 | 0.00 | 0.00 | 0.00 | 74 | 1004.9 |
| 20260506004528 | 83 | 121 | 0.0 | 3.0 | 0.00 | 0.00 | 0.00 | 74 | 1004.8 |
| 20260506003528 | 83 | 152 | 0.0 | 2.0 | 0.00 | 0.00 | 0.00 | 74 | 1004.8 |
| 20260506003027 | 84 | 117 | 0.0 | 2.0 | 0.00 | 0.00 | 0.00 | 74 | 1004.8 |
| 20260506002028 | 84 | 153 | 2.0 | 7.0 | 0.00 | 0.00 | 0.00 | 73 | 1004.7 |
| 20260506001528 | 84 | 220 | 1.0 | 7.0 | 0.00 | 0.00 | 0.00 | 73 | 1004.5 |
| 20260506001027 | 84 | 184 | 3.0 | 6.0 | 0.00 | 0.00 | 0.00 | 73 | 1004.6 |
| 20260506000027 | 84 | 136 | 3.0 | 3.0 | 0.00 | 0.00 | 0.00 | 73 | 1004.5 |
| 20260505235527 | 84 | 173 | 3.0 | 5.0 | 0.00 | 0.00 | 0.00 | 73 | 1004.4 |
| 20260505235027 | 84 | 157 | 1.0 | 5.0 | 0.00 | 0.00 | 0.00 | 73 | 1004.5 |
| 20260505233527 | 84 | 133 | 1.0 | 3.0 | 0.00 | 0.00 | 0.00 | 73 | 1004.4 |
| 20260505233027 | 84 | 178 | 2.0 | 3.0 | 0.00 | 0.00 | 0.00 | 73 | 1004.4 |
| 20260505232527 | 84 | 213 | 0.0 | 4.0 | 0.00 | 0.00 | 0.00 | 72 | 1004.4 |
| 20260505231526 | 84 | 242 | 1.0 | 7.0 | 0.00 | 0.00 | 0.00 | 73 | 1004.3 |
| 20260505231027 | 84 | 213 | 3.0 | 7.0 | 0.00 | 0.00 | 0.00 | 72 | 1004.4 |
| 20260505230026 | 84 | 126 | 1.0 | 6.0 | 0.00 | 0.00 | 0.00 | 72 | 1004.2 |
| 20260505225526 | 84 | 204 | 1.0 | 6.0 | 0.00 | 0.00 | 0.00 | 72 | 1004.2 |
| 20260505225026 | 84 | 248 | 2.0 | 8.0 | 0.00 | 0.00 | 0.00 | 72 | 1004.2 |
| 20260505224026 | 85 | 171 | 2.0 | 8.0 | 0.00 | 0.00 | 0.00 | 72 | 1004.2 |
| 20260505223527 | 85 | 193 | 5.0 | 5.0 | 0.00 | 0.00 | 0.00 | 72 | 1004.2 |
| 20260505223026 | 85 | 209 | 3.0 | 5.0 | 0.00 | 0.00 | 0.00 | 72 | 1004.3 |
| 20260505222526 | 85 | 251 | 3.0 | 8.0 | 0.00 | 0.00 | 0.00 | 72 | 1004.3 |
| 20260505222026 | 85 | 149 | 5.0 | 8.0 | 0.00 | 0.00 | 0.00 | 72 | 1004.2 |
| 20260505220526 | 85 | 121 | 1.0 | 5.0 | 0.00 | 0.00 | 0.00 | 72 | 1004.3 |
| 20260505220026 | 85 | 247 | 4.0 | 5.0 | 0.00 | 0.00 | 0.00 | 72 | 1004.5 |
| 20260505215026 | 85 | 185 | 4.0 | 8.0 | 0.00 | 0.00 | 0.00 | 72 | 1004.6 |
| 20260505214526 | 85 | 294 | 1.0 | 6.0 | 0.00 | 0.00 | 0.00 | 72 | 1004.8 |
| 20260505214026 | 85 | 209 | 4.0 | 6.0 | 0.00 | 0.00 | 0.00 | 72 | 1004.9 |
| 20260505213526 | 85 | 208 | 4.0 | 7.0 | 0.00 | 0.00 | 0.00 | 72 | 1004.8 |
| 20260505212525 | 85 | 219 | 3.0 | 9.0 | 0.00 | 0.00 | 0.00 | 73 | 1004.8 |
| 20260505212025 | 85 | 258 | 1.0 | 9.0 | 0.00 | 0.00 | 0.00 | 73 | 1004.8 |
| 20260505211525 | 85 | 194 | 2.0 | 9.0 | 0.00 | 0.00 | 0.00 | 73 | 1004.8 |
| 20260505211025 | 85 | 119 | 3.0 | 6.0 | 0.00 | 0.00 | 0.00 | 73 | 1004.9 |
| 20260505210026 | 84 | 150 | 2.0 | 7.0 | 0.00 | 0.00 | 0.00 | 74 | 1005.1 |
| 20260505205525 | 84 | 262 | 3.0 | 8.0 | 0.00 | 0.00 | 0.00 | 74 | 1005.1 |
| 20260505205025 | 83 | 207 | 5.0 | 8.0 | 0.00 | 0.00 | 0.00 | 75 | 1005.3 |
| 20260505204525 | 83 | 296 | 1.0 | 7.0 | 0.00 | 0.00 | 0.00 | 74 | 1005.4 |
| 20260505204025 | 83 | 211 | 3.0 | 11.0 | 0.00 | 0.00 | 0.00 | 75 | 1005.5 |
| 20260505203525 | 83 | 281 | 2.0 | 11.0 | 0.00 | 0.00 | 0.00 | 75 | 1005.6 |
| 20260505203025 | 83 | 163 | 1.0 | 7.0 | 0.00 | 0.00 | 0.00 | 75 | 1005.7 |
| 20260505202525 | 82 | 199 | 0.0 | 10.0 | 0.00 | 0.00 | 0.00 | 76 | 1005.8 |
| 20260505202025 | 82 | 175 | 2.0 | 10.0 | 0.00 | 0.00 | 0.00 | 76 | 1005.8 |
| 20260505201025 | 82 | 91 | 0.0 | 7.0 | 0.00 | 0.00 | 0.00 | 76 | 1005.9 |
| 20260505200525 | 82 | 138 | 5.0 | 7.0 | 0.00 | 0.00 | 0.00 | 76 | 1006.0 |
| 20260505200025 | 82 | 231 | 4.0 | 6.0 | 0.00 | 0.00 | 0.00 | 76 | 1005.9 |
| 20260505195525 | 82 | 217 | 2.0 | 7.0 | 0.00 | 0.00 | 0.00 | 76 | 1006.2 |
| 20260505195025 | 82 | 260 | 1.0 | 7.0 | 0.00 | 0.00 | 0.00 | 76 | 1006.2 |
| 20260505194525 | 82 | 198 | 2.0 | 5.0 | 0.00 | 0.00 | 0.00 | 77 | 1006.3 |
| 20260505194025 | 81 | 241 | 3.0 | 6.0 | 0.00 | 0.00 | 0.00 | 77 | 1006.3 |
| 20260505193524 | 81 | 234 | 2.0 | 6.0 | 0.00 | 0.00 | 0.00 | 77 | 1006.3 |
| 20260505193024 | 81 | 97 | 1.0 | 8.0 | 0.00 | 0.00 | 0.00 | 77 | 1006.3 |
| 20260505192024 | 81 | 84 | 1.0 | 8.0 | 0.00 | 0.00 | 0.00 | 78 | 1006.5 |
| 20260505191024 | 80 | 105 | 2.0 | 7.0 | 0.00 | 0.00 | 0.00 | 78 | 1006.5 |
| 20260505190525 | 80 | 209 | 1.0 | 10.0 | 0.00 | 0.00 | 0.00 | 78 | 1006.6 |
| 20260505190024 | 80 | 96 | 2.0 | 10.0 | 0.00 | 0.00 | 0.00 | 78 | 1006.6 |
| 20260505185024 | 79 | 190 | 2.0 | 8.0 | 0.00 | 0.00 | 0.00 | 78 | 1006.8 |
| 20260505184524 | 79 | 223 | 3.0 | 5.0 | 0.00 | 0.00 | 0.00 | 79 | 1006.9 |
| 20260505184024 | 79 | 215 | 0.0 | 3.0 | 0.00 | 0.00 | 0.00 | 79 | 1007.0 |
| 20260505183524 | 79 | 183 | 2.0 | 7.0 | 0.00 | 0.00 | 0.00 | 79 | 1007.0 |
| 20260505183024 | 79 | 260 | 6.0 | 7.0 | 0.00 | 0.00 | 0.00 | 79 | 1007.0 |
| 20260505182524 | 79 | 239 | 3.0 | 7.0 | 0.00 | 0.00 | 0.00 | 79 | 1007.1 |
| 20260505182024 | 78 | 237 | 1.0 | 5.0 | 0.00 | 0.00 | 0.00 | 80 | 1007.1 |
| 20260505181524 | 78 | 195 | 0.0 | 6.0 | 0.00 | 0.00 | 0.00 | 79 | 1007.2 |
| 20260505181024 | 78 | 329 | 2.0 | 6.0 | 0.00 | 0.00 | 0.00 | 80 | 1007.3 |
| 20260505180524 | 78 | 326 | 2.0 | 6.0 | 0.00 | 0.00 | 0.00 | 80 | 1007.3 |
| 20260505180024 | 78 | 216 | 1.0 | 7.0 | 0.00 | 0.00 | 0.00 | 80 | 1007.3 |
| 20260505175523 | 77 | 215 | 7.0 | 7.0 | 0.00 | 0.00 | 0.00 | 80 | 1007.3 |
| 20260505175024 | 77 | 195 | 5.0 | 6.0 | 0.00 | 0.00 | 0.00 | 80 | 1007.3 |
| 20260505174524 | 77 | 196 | 5.0 | 6.0 | 0.00 | 0.00 | 0.00 | 80 | 1007.4 |
| 20260505174024 | 77 | 220 | 2.0 | 4.0 | 0.00 | 0.00 | 0.00 | 80 | 1007.4 |
| 20260505173524 | 76 | 275 | 4.0 | 4.0 | 0.00 | 0.00 | 0.00 | 80 | 1007.5 |
| 20260505173023 | 76 | 299 | 2.0 | 4.0 | 0.00 | 0.00 | 0.00 | 81 | 1007.6 |
| 20260505172523 | 76 | 151 | 2.0 | 4.0 | 0.00 | 0.00 | 0.00 | 80 | 1007.6 |
| 20260505172023 | 76 | 227 | 2.0 | 5.0 | 0.00 | 0.00 | 0.00 | 80 | 1007.6 |
| 20260505171523 | 76 | 282 | 1.0 | 8.0 | 0.00 | 0.00 | 0.00 | 80 | 1007.5 |
| 20260505171023 | 76 | 296 | 3.0 | 8.0 | 0.00 | 0.00 | 0.00 | 80 | 1007.7 |
| 20260505170523 | 76 | 293 | 3.0 | 7.0 | 0.00 | 0.00 | 0.00 | 80 | 1007.7 |
| 20260505165523 | 76 | 296 | 2.0 | 6.0 | 0.00 | 0.00 | 0.00 | 81 | 1007.6 |
| 20260505165023 | 76 | 213 | 2.0 | 6.0 | 0.00 | 0.00 | 0.00 | 81 | 1007.6 |
| 20260505164523 | 75 | 140 | 4.0 | 6.0 | 0.00 | 0.00 | 0.00 | 81 | 1007.6 |
| 20260505163523 | 75 | 180 | 1.0 | 5.0 | 0.00 | 0.00 | 0.00 | 81 | 1007.7 |
| 20260505163023 | 75 | 172 | 3.0 | 8.0 | 0.00 | 0.00 | 0.00 | 81 | 1007.7 |
| 20260505162523 | 75 | 105 | 6.0 | 8.0 | 0.00 | 0.00 | 0.00 | 81 | 1007.7 |
| 20260505161523 | 74 | 110 | 2.0 | 4.0 | 0.00 | 0.00 | 0.00 | 81 | 1007.8 |
| 20260505153022 | 73 | 261 | 1.0 | 5.0 | 0.00 | 0.00 | 0.00 | 81 | 1007.9 |
| 20260505152522 | 73 | 103 | 2.0 | 5.0 | 0.00 | 0.00 | 0.00 | 82 | 1007.9 |
| 20260505152023 | 73 | 206 | 3.0 | 5.0 | 0.00 | 0.00 | 0.00 | 82 | 1007.7 |
| 20260505151522 | 73 | 209 | 1.0 | 5.0 | 0.00 | 0.00 | 0.00 | 82 | 1007.6 |
| 20260505151021 | 73 | 177 | 1.0 | 6.0 | 0.00 | 0.00 | 0.00 | 82 | 1007.6 |
| 20260505150521 | 73 | 199 | 1.0 | 6.0 | 0.00 | 0.00 | 0.00 | 82 | 1007.5 |
| 20260505140521 | 73 | 254 | 3.0 | 8.0 | 0.00 | 0.00 | 0.00 | 82 | 1007.3 |
| 20260505125019 | 72 | 111 | 3.0 | 6.0 | 0.00 | 0.00 | 0.00 | 82 | 1006.7 |
| 20260505124519 | 72 | 115 | 2.0 | 4.0 | 0.00 | 0.00 | 0.00 | 82 | 1006.7 |
| 20260505124020 | 72 | 212 | 2.0 | 5.0 | 0.00 | 0.00 | 0.00 | 82 | 1006.7 |
| 20260505123520 | 72 | 240 | 1.0 | 7.0 | 0.00 | 0.00 | 0.00 | 82 | 1006.6 |
| 20260505123019 | 72 | 219 | 5.0 | 7.0 | 0.00 | 0.00 | 0.00 | 82 | 1006.5 |
| 20260505122519 | 72 | 142 | 3.0 | 7.0 | 0.00 | 0.00 | 0.00 | 82 | 1006.4 |
| 20260505122019 | 72 | 180 | 2.0 | 7.0 | 0.00 | 0.00 | 0.00 | 82 | 1006.3 |
| 20260505121519 | 72 | 234 | 2.0 | 6.0 | 0.00 | 0.00 | 0.00 | 82 | 1006.4 |
| 20260505121019 | 72 | 128 | 2.0 | 7.0 | 0.00 | 0.00 | 0.00 | 82 | 1006.4 |
| 20260505120519 | 72 | 171 | 4.0 | 7.0 | 0.00 | 0.00 | 0.00 | 82 | 1006.3 |
| 20260505120019 | 72 | 164 | 1.0 | 6.0 | 0.00 | 0.00 | 0.00 | 82 | 1006.4 |
| 20260505115519 | 72 | 260 | 2.0 | 8.0 | 0.00 | 0.00 | 0.00 | 82 | 1006.4 |
| 20260505115019 | 72 | 211 | 2.0 | 8.0 | 0.00 | 0.00 | 0.00 | 82 | 1006.3 |
| 20260505114519 | 72 | 215 | 3.0 | 13.0 | 0.00 | 0.00 | 0.00 | 82 | 1006.2 |
| 20260505114019 | 72 | 169 | 4.0 | 13.0 | 0.00 | 0.00 | 0.00 | 82 | 1006.1 |
| 20260505113519 | 72 | 228 | 4.0 | 6.0 | 0.00 | 0.00 | 0.00 | 82 | 1006.1 |
| 20260505113019 | 72 | 258 | 0.0 | 4.0 | 0.00 | 0.00 | 0.00 | 82 | 1006.3 |
| 20260505112519 | 72 | 241 | 2.0 | 7.0 | 0.00 | 0.00 | 0.00 | 82 | 1006.3 |
| 20260505112019 | 72 | 202 | 2.0 | 7.0 | 0.00 | 0.00 | 0.00 | 82 | 1006.2 |
| 20260505111519 | 72 | 217 | 4.0 | 7.0 | 0.00 | 0.00 | 0.00 | 82 | 1006.2 |
| 20260505111019 | 72 | 217 | 3.0 | 7.0 | 0.00 | 0.00 | 0.00 | 82 | 1006.3 |
| 20260505110519 | 72 | 197 | 2.0 | 9.0 | 0.00 | 0.00 | 0.00 | 82 | 1006.3 |
| 20260505101518 | 71 | 125 | 3.0 | 7.0 | 0.00 | 0.00 | 0.00 | 82 | 1006.4 |
| 20260505101018 | 71 | 182 | 3.0 | 8.0 | 0.00 | 0.00 | 0.00 | 82 | 1006.7 |
| 20260505100518 | 71 | 329 | 2.0 | 8.0 | 0.00 | 0.00 | 0.00 | 82 | 1006.7 |
| 20260505100019 | 71 | 217 | 2.0 | 7.0 | 0.00 | 0.00 | 0.00 | 82 | 1006.5 |
| 20260505095518 | 71 | 360 | 5.0 | 7.0 | 0.00 | 0.00 | 0.00 | 82 | 1006.4 |
| 20260505095018 | 71 | 140 | 2.0 | 4.0 | 0.00 | 0.00 | 0.00 | 82 | 1006.4 |
| 20260505094518 | 71 | 213 | 3.0 | 5.0 | 0.00 | 0.00 | 0.00 | 82 | 1006.6 |
| 20260505094018 | 71 | 202 | 4.0 | 6.0 | 0.00 | 0.00 | 0.00 | 82 | 1006.5 |
| 20260505093518 | 71 | 115 | 6.0 | 8.0 | 0.00 | 0.00 | 0.00 | 82 | 1006.5 |
| 20260505093018 | 71 | 311 | 1.0 | 8.0 | 0.00 | 0.00 | 0.00 | 82 | 1006.7 |
| 20260505092518 | 71 | 233 | 3.0 | 7.0 | 0.00 | 0.00 | 0.00 | 82 | 1006.6 |
| 20260505092018 | 71 | 207 | 2.0 | 8.0 | 0.00 | 0.00 | 0.00 | 81 | 1006.4 |
| 20260505091518 | 71 | 229 | 4.0 | 8.0 | 0.00 | 0.00 | 0.00 | 81 | 1006.5 |
| 20260505091018 | 71 | 217 | 3.0 | 6.0 | 0.00 | 0.00 | 0.00 | 81 | 1006.5 |
| 20260505090518 | 71 | 194 | 0.0 | 5.0 | 0.00 | 0.00 | 0.00 | 81 | 1006.7 |
| 20260505090017 | 71 | 173 | 2.0 | 6.0 | 0.00 | 0.00 | 0.00 | 81 | 1006.6 |
| 20260505085518 | 71 | 241 | 1.0 | 6.0 | 0.00 | 0.00 | 0.00 | 81 | 1006.8 |
| 20260505085018 | 71 | 221 | 3.0 | 4.0 | 0.00 | 0.00 | 0.00 | 81 | 1006.7 |
| 20260505084017 | 71 | 190 | 2.0 | 5.0 | 0.00 | 0.00 | 0.00 | 81 | 1006.6 |
| 20260505083518 | 71 | 287 | 2.0 | 5.0 | 0.00 | 0.00 | 0.00 | 81 | 1006.8 |
| 20260505083017 | 71 | 150 | 3.0 | 12.0 | 0.00 | 0.00 | 0.00 | 81 | 1007.0 |
| 20260505082517 | 71 | 326 | 4.0 | 12.0 | 0.00 | 0.00 | 0.00 | 81 | 1007.2 |
| 20260505082017 | 71 | 55 | 9.0 | 9.0 | 0.00 | 0.00 | 0.00 | 81 | 1007.1 |
| 20260505081517 | 71 | 177 | 5.0 | 13.0 | 0.00 | 0.00 | 0.00 | 81 | 1007.1 |
| 20260505081017 | 71 | 193 | 1.0 | 13.0 | 0.00 | 0.00 | 0.00 | 81 | 1007.2 |
| 20260505080517 | 72 | 187 | 1.0 | 4.0 | 0.00 | 0.00 | 0.00 | 81 | 1007.3 |
| 20260505075517 | 72 | 223 | 4.0 | 11.0 | 0.00 | 0.00 | 0.00 | 81 | 1007.3 |
| 20260505075017 | 72 | 168 | 4.0 | 11.0 | 0.00 | 0.00 | 0.00 | 81 | 1007.3 |
| 20260505074517 | 72 | 208 | 3.0 | 11.0 | 0.00 | 0.00 | 0.00 | 81 | 1007.3 |